Time,TemperatureF,DewpointF,PressureIn,WindDirection,WindDirectionDegrees,WindSpeedMPH,WindSpeedGustMPH,Humidity,HourlyPrecipIn,Conditions,Clouds,dailyrainin,SoftwareType,DateUTC
2013-08-25 00:00:00,61.5,57.3,30.25,North,360,0.0,0.0,86,0.00,,,0.00,Wunderground v.1.15,2013-08-25 04:00:00,
2013-08-25 00:05:00,61.4,57.5,30.25,North,360,0.0,0.0,87,0.00,,,0.00,Wunderground v.1.15,2013-08-25 04:05:00,
2013-08-25 00:10:00,61.4,57.5,30.25,North,32767,0.0,0.0,87,0.00,,,0.00,Wunderground v.1.15,2013-08-25 04:10:00,
2013-08-25 00:20:00,61.2,57.3,30.25,North,32767,0.0,0.0,87,0.00,,,0.00,Wunderground v.1.15,2013-08-25 04:20:00,
2013-08-25 00:25:00,61.1,57.2,30.26,North,32767,0.0,0.0,87,0.00,,,0.00,Wunderground v.1.15,2013-08-25 04:25:00,
2013-08-25 00:35:00,61.0,57.1,30.26,North,32767,0.0,0.0,87,0.00,,,0.00,Wunderground v.1.15,2013-08-25 04:35:00,
2013-08-25 00:40:00,61.0,57.1,30.26,North,32767,0.0,0.0,87,0.00,,,0.00,Wunderground v.1.15,2013-08-25 04:40:00,
2013-08-25 00:50:00,60.8,56.9,30.26,North,32767,0.0,0.0,87,0.00,,,0.00,Wunderground v.1.15,2013-08-25 04:50:00,
2013-08-25 00:55:00,60.7,57.1,30.26,North,360,0.0,0.0,88,0.00,,,0.00,Wunderground v.1.15,2013-08-25 04:55:00,
2013-08-25 01:05:00,60.5,56.9,30.26,North,32767,0.0,0.0,88,0.00,,,0.00,Wunderground v.1.15,2013-08-25 05:05:00,
2013-08-25 01:15:00,60.3,56.7,30.26,North,360,0.0,0.0,88,0.00,,,0.00,Wunderground v.1.15,2013-08-25 05:15:00,
2013-08-25 01:20:00,60.2,56.3,30.26,North,32767,0.0,0.0,87,0.00,,,0.00,Wunderground v.1.15,2013-08-25 05:20:00,
2013-08-25 01:30:00,60.2,56.6,30.26,North,32767,0.0,0.0,88,0.00,,,0.00,Wunderground v.1.15,2013-08-25 05:30:00,
2013-08-25 01:40:00,60.0,56.1,30.26,North,360,0.0,0.0,87,0.00,,,0.00,Wunderground v.1.15,2013-08-25 05:40:00,
2013-08-25 01:46:00,60.0,56.1,30.26,North,32767,0.0,0.0,87,0.00,,,0.00,Wunderground v.1.15,2013-08-25 05:46:00,
2013-08-25 01:55:00,60.0,56.1,30.25,North,32767,0.0,0.0,87,0.00,,,0.00,Wunderground v.1.15,2013-08-25 05:55:00,
2013-08-25 02:00:00,60.0,56.1,30.25,North,32767,0.0,0.0,87,0.00,,,0.00,Wunderground v.1.15,2013-08-25 06:00:00,
2013-08-25 02:10:00,60.0,56.1,30.26,North,360,0.0,0.0,87,0.00,,,0.00,Wunderground v.1.15,2013-08-25 06:10:00,
2013-08-25 02:20:00,60.0,55.8,30.25,North,360,0.0,0.0,86,0.00,,,0.00,Wunderground v.1.15,2013-08-25 06:20:00,
2013-08-25 02:30:00,59.8,55.9,30.25,North,32767,0.0,0.0,87,0.00,,,0.00,Wunderground v.1.15,2013-08-25 06:30:00,
2013-08-25 02:35:00,59.8,55.9,30.25,North,360,0.0,0.0,87,0.00,,,0.00,Wunderground v.1.15,2013-08-25 06:35:00,
2013-08-25 02:40:00,59.7,55.8,30.26,North,360,0.0,0.0,87,0.00,,,0.00,Wunderground v.1.15,2013-08-25 06:40:00,
2013-08-25 02:45:00,59.5,55.6,30.26,North,360,0.0,0.0,87,0.00,,,0.00,Wunderground v.1.15,2013-08-25 06:45:00,
2013-08-25 02:50:00,59.4,55.5,30.26,North,32767,0.0,0.0,87,0.00,,,0.00,Wunderground v.1.15,2013-08-25 06:50:00,
2013-08-25 02:55:00,59.3,55.4,30.26,North,32767,0.0,0.0,87,0.00,,,0.00,Wunderground v.1.15,2013-08-25 06:55:00,
2013-08-25 03:05:00,59.0,55.4,30.26,North,32767,0.0,0.0,88,0.00,,,0.00,Wunderground v.1.15,2013-08-25 07:05:00,
2013-08-25 03:15:00,59.0,55.4,30.27,North,32767,0.0,0.0,88,0.00,,,0.00,Wunderground v.1.15,2013-08-25 07:15:00,
2013-08-25 03:25:00,59.0,55.4,30.27,North,32767,0.0,0.0,88,0.00,,,0.00,Wunderground v.1.15,2013-08-25 07:25:00,
2013-08-25 03:35:00,58.6,55.4,30.26,North,32767,0.0,0.0,89,0.00,,,0.00,Wunderground v.1.15,2013-08-25 07:35:00,
2013-08-25 03:40:00,58.4,55.2,30.26,North,32767,0.0,0.0,89,0.00,,,0.00,Wunderground v.1.15,2013-08-25 07:40:00,
2013-08-25 03:50:00,58.3,55.1,30.26,North,32767,0.0,0.0,89,0.00,,,0.00,Wunderground v.1.15,2013-08-25 07:50:00,
2013-08-25 04:00:00,58.4,55.5,30.27,North,360,0.0,0.0,90,0.00,,,0.00,Wunderground v.1.15,2013-08-25 08:00:00,
2013-08-25 04:05:00,58.4,55.5,30.26,North,360,0.0,0.0,90,0.00,,,0.00,Wunderground v.1.15,2013-08-25 08:05:00,
2013-08-25 04:15:00,58.4,55.5,30.26,North,32767,0.0,0.0,90,0.00,,,0.00,Wunderground v.1.15,2013-08-25 08:15:00,
2013-08-25 04:20:00,58.3,55.1,30.27,North,32767,0.0,0.0,89,0.00,,,0.00,Wunderground v.1.15,2013-08-25 08:20:00,
2013-08-25 04:30:00,58.3,55.1,30.26,North,360,0.0,0.0,89,0.00,,,0.00,Wunderground v.1.15,2013-08-25 08:30:00,
2013-08-25 04:35:00,58.3,56.0,30.27,North,360,0.0,0.0,92,0.00,,,0.00,Wunderground v.1.15,2013-08-25 08:35:00,
2013-08-25 04:45:00,58.4,55.8,30.27,North,32767,0.0,0.0,91,0.00,,,0.00,Wunderground v.1.15,2013-08-25 08:45:00,
2013-08-25 04:55:00,58.3,55.7,30.27,North,32767,0.0,0.0,91,0.00,,,0.00,Wunderground v.1.15,2013-08-25 08:55:00,
2013-08-25 05:00:00,58.2,55.6,30.27,North,360,0.0,0.0,91,0.00,,,0.00,Wunderground v.1.15,2013-08-25 09:00:00,
2013-08-25 05:05:00,58.3,55.7,30.27,North,32767,0.0,0.0,91,0.00,,,0.00,Wunderground v.1.15,2013-08-25 09:05:00,
2013-08-25 05:15:00,58.2,55.6,30.27,North,32767,0.0,0.0,91,0.00,,,0.00,Wunderground v.1.15,2013-08-25 09:15:00,
2013-08-25 05:20:00,58.0,55.4,30.27,North,32767,0.0,0.0,91,0.00,,,0.00,Wunderground v.1.15,2013-08-25 09:20:00,
2013-08-25 05:30:00,57.9,55.0,30.28,North,32767,0.0,0.0,90,0.00,,,0.00,Wunderground v.1.15,2013-08-25 09:30:00,
2013-08-25 05:40:00,57.8,54.6,30.28,North,32767,0.0,0.0,89,0.00,,,0.00,Wunderground v.1.15,2013-08-25 09:40:00,
2013-08-25 05:50:00,58.2,54.3,30.28,North,32767,0.0,0.0,87,0.00,,,0.00,Wunderground v.1.15,2013-08-25 09:50:00,
2013-08-25 05:55:00,58.5,54.6,30.28,North,32767,0.0,0.0,87,0.00,,,0.00,Wunderground v.1.15,2013-08-25 09:55:00,
2013-08-25 06:05:00,58.8,54.9,30.28,North,360,0.0,0.0,87,0.00,,,0.00,Wunderground v.1.15,2013-08-25 10:05:00,
2013-08-25 06:15:00,58.9,55.0,30.29,North,32767,0.0,0.0,87,0.00,,,0.00,Wunderground v.1.15,2013-08-25 10:15:00,
2013-08-25 06:25:00,58.8,54.6,30.29,North,32767,0.0,0.0,86,0.00,,,0.00,Wunderground v.1.15,2013-08-25 10:25:00,
2013-08-25 06:35:00,59.0,55.1,30.30,North,360,0.0,0.0,87,0.00,,,0.00,Wunderground v.1.15,2013-08-25 10:35:00,
2013-08-25 06:45:00,58.7,54.8,30.30,North,32767,0.0,0.0,87,0.00,,,0.00,Wunderground v.1.15,2013-08-25 10:45:00,
2013-08-25 06:55:00,58.6,55.1,30.31,North,32767,0.0,0.0,88,0.00,,,0.00,Wunderground v.1.15,2013-08-25 10:55:00,
2013-08-25 07:05:00,58.4,54.9,30.31,North,32767,0.0,0.0,88,0.00,,,0.00,Wunderground v.1.15,2013-08-25 11:05:00,
2013-08-25 07:15:00,58.4,55.2,30.31,North,360,0.0,0.0,89,0.00,,,0.00,Wunderground v.1.15,2013-08-25 11:15:00,
2013-08-25 07:25:00,58.4,55.5,30.31,North,32767,0.0,0.0,90,0.00,,,0.00,Wunderground v.1.15,2013-08-25 11:25:00,
2013-08-25 07:35:00,58.0,55.4,30.32,North,360,0.0,0.0,91,0.00,,,0.00,Wunderground v.1.15,2013-08-25 11:35:00,
2013-08-25 07:45:00,57.6,54.7,30.32,North,32767,0.0,0.0,90,0.00,,,0.00,Wunderground v.1.15,2013-08-25 11:45:00,
2013-08-25 07:55:00,57.3,54.7,30.32,North,32767,0.0,0.0,91,0.00,,,0.00,Wunderground v.1.15,2013-08-25 11:55:00,
2013-08-25 08:00:00,57.1,54.5,30.33,North,32767,0.0,0.0,91,0.00,,,0.00,Wunderground v.1.15,2013-08-25 12:00:00,
2013-08-25 08:05:00,57.0,54.4,30.33,North,360,0.0,0.0,91,0.00,,,0.00,Wunderground v.1.15,2013-08-25 12:05:00,
2013-08-25 08:15:00,56.9,54.6,30.33,North,32767,0.0,0.0,92,0.00,,,0.00,Wunderground v.1.15,2013-08-25 12:15:00,
2013-08-25 08:20:00,56.9,54.6,30.33,North,32767,0.0,0.0,92,0.00,,,0.00,Wunderground v.1.15,2013-08-25 12:20:00,
2013-08-25 08:30:00,56.9,54.6,30.34,North,360,0.0,0.0,92,0.00,,,0.00,Wunderground v.1.15,2013-08-25 12:30:00,
2013-08-25 08:40:00,56.9,54.6,30.34,North,32767,0.0,0.0,92,0.00,,,0.00,Wunderground v.1.15,2013-08-25 12:40:00,
2013-08-25 08:50:00,56.9,54.6,30.34,North,32767,0.0,0.0,92,0.00,,,0.00,Wunderground v.1.15,2013-08-25 12:50:00,
2013-08-25 08:55:00,56.9,54.9,30.34,North,360,0.0,0.0,93,0.00,,,0.00,Wunderground v.1.15,2013-08-25 12:55:00,
2013-08-25 09:00:00,57.0,55.0,30.35,North,360,0.0,0.0,93,0.00,,,0.00,Wunderground v.1.15,2013-08-25 13:00:00,
2013-08-25 09:05:00,57.0,55.3,30.35,North,360,0.0,0.0,94,0.00,,,0.00,Wunderground v.1.15,2013-08-25 13:05:00,
2013-08-25 09:15:00,57.2,55.5,30.35,North,32767,0.0,0.0,94,0.00,,,0.00,Wunderground v.1.15,2013-08-25 13:15:00,
2013-08-25 09:20:00,57.3,55.6,30.35,North,32767,0.0,0.0,94,0.00,,,0.00,Wunderground v.1.15,2013-08-25 13:20:00,
2013-08-25 09:25:00,57.5,56.1,30.35,North,360,0.0,0.0,95,0.00,,,0.00,Wunderground v.1.15,2013-08-25 13:25:00,
2013-08-25 09:30:00,57.5,55.8,30.35,North,32767,0.0,0.0,94,0.00,,,0.00,Wunderground v.1.15,2013-08-25 13:30:00,
2013-08-25 09:35:00,57.5,55.8,30.35,North,360,0.0,0.0,94,0.00,,,0.00,Wunderground v.1.15,2013-08-25 13:35:00,
2013-08-25 09:45:00,57.6,55.9,30.35,North,32767,0.0,0.0,94,0.00,,,0.00,Wunderground v.1.15,2013-08-25 13:45:00,
2013-08-25 09:55:00,58.0,56.3,30.35,North,32767,0.0,0.0,94,0.00,,,0.00,Wunderground v.1.15,2013-08-25 13:55:00,
2013-08-25 10:05:00,58.5,57.1,30.35,North,32767,0.0,0.0,95,0.00,,,0.00,Wunderground v.1.15,2013-08-25 14:05:00,
2013-08-25 10:15:00,59.0,57.6,30.35,North,32767,0.0,0.0,95,0.00,,,0.00,Wunderground v.1.15,2013-08-25 14:15:00,
2013-08-25 10:25:00,59.6,58.2,30.35,North,32767,0.0,0.0,95,0.00,,,0.00,Wunderground v.1.15,2013-08-25 14:25:00,
2013-08-25 10:35:00,60.5,58.8,30.35,North,32767,0.0,0.0,94,0.00,,,0.00,Wunderground v.1.15,2013-08-25 14:35:00,
2013-08-25 10:45:00,61.2,58.9,30.35,North,32767,0.0,0.0,92,0.00,,,0.00,Wunderground v.1.15,2013-08-25 14:45:00,
2013-08-25 10:55:00,63.7,60.1,30.34,North,32767,0.0,0.0,88,0.00,,,0.00,Wunderground v.1.15,2013-08-25 14:55:00,
2013-08-25 11:05:00,65.4,60.1,30.34,North,32767,0.0,0.0,83,0.00,,,0.00,Wunderground v.1.15,2013-08-25 15:05:00,
2013-08-25 11:15:00,66.0,61.0,30.34,North,360,0.0,0.0,84,0.00,,,0.00,Wunderground v.1.15,2013-08-25 15:15:00,
2013-08-25 11:20:00,66.6,60.2,30.34,North,360,0.0,0.0,80,0.00,,,0.00,Wunderground v.1.15,2013-08-25 15:20:00,
2013-08-25 11:30:00,67.6,61.2,30.34,North,32767,0.0,0.0,80,0.00,,,0.00,Wunderground v.1.15,2013-08-25 15:30:00,
2013-08-25 11:40:00,68.6,61.1,30.33,North,32767,0.0,0.0,77,0.00,,,0.00,Wunderground v.1.15,2013-08-25 15:40:00,
2013-08-25 11:50:00,68.4,61.6,30.33,North,360,0.0,0.0,79,0.00,,,0.00,Wunderground v.1.15,2013-08-25 15:50:00,
2013-08-25 12:00:00,68.5,61.0,30.33,North,32767,0.0,0.0,77,0.00,,,0.00,Wunderground v.1.15,2013-08-25 16:00:00,
2013-08-25 12:05:00,68.2,60.0,30.33,North,32767,0.0,0.0,75,0.00,,,0.00,Wunderground v.1.15,2013-08-25 16:05:00,
2013-08-25 12:15:00,68.4,63.0,30.32,North,32767,0.0,0.0,83,0.00,,,0.00,Wunderground v.1.15,2013-08-25 16:15:00,
2013-08-25 12:25:00,70.4,62.5,30.32,North,360,0.0,0.0,76,0.00,,,0.00,Wunderground v.1.15,2013-08-25 16:25:00,
2013-08-25 12:31:00,70.7,61.6,30.32,North,360,0.0,0.0,73,0.00,,,0.00,Wunderground v.1.15,2013-08-25 16:31:00,
2013-08-25 12:40:00,71.1,62.8,30.32,North,32767,0.0,0.0,75,0.00,,,0.00,Wunderground v.1.15,2013-08-25 16:40:00,
2013-08-25 12:45:00,70.7,61.6,30.32,North,32767,0.0,0.0,73,0.00,,,0.00,Wunderground v.1.15,2013-08-25 16:45:00,
2013-08-25 12:50:00,70.4,62.8,30.32,North,32767,0.0,0.0,77,0.00,,,0.00,Wunderground v.1.15,2013-08-25 16:50:00,
2013-08-25 13:00:00,70.6,62.3,30.32,North,360,0.0,0.0,75,0.00,,,0.00,Wunderground v.1.15,2013-08-25 17:00:00,
2013-08-25 13:05:00,70.6,61.9,30.32,North,360,0.0,0.0,74,0.00,,,0.00,Wunderground v.1.15,2013-08-25 17:05:00,
2013-08-25 13:15:00,72.0,61.3,30.31,North,32767,0.0,0.0,69,0.00,,,0.00,Wunderground v.1.15,2013-08-25 17:15:00,
2013-08-25 13:20:00,72.4,62.5,30.30,North,32767,0.0,0.0,71,0.00,,,0.00,Wunderground v.1.15,2013-08-25 17:20:00,
2013-08-25 13:30:00,71.5,62.0,30.30,North,32767,0.0,0.0,72,0.00,,,0.00,Wunderground v.1.15,2013-08-25 17:30:00,
2013-08-25 13:35:00,71.3,60.6,30.29,North,360,0.0,0.0,69,0.00,,,0.00,Wunderground v.1.15,2013-08-25 17:35:00,
2013-08-25 13:40:00,70.8,60.9,30.29,North,32767,0.0,0.0,71,0.00,,,0.00,Wunderground v.1.15,2013-08-25 17:40:00,
2013-08-25 13:45:00,70.5,61.8,30.29,North,360,0.0,0.0,74,0.00,,,0.00,Wunderground v.1.15,2013-08-25 17:45:00,
2013-08-25 13:50:00,72.3,64.3,30.28,North,360,0.0,0.0,76,0.00,,,0.00,Wunderground v.1.15,2013-08-25 17:50:00,
2013-08-25 14:00:00,72.1,62.6,30.28,North,32767,0.0,0.0,72,0.00,,,0.00,Wunderground v.1.15,2013-08-25 18:00:00,
2013-08-25 14:05:00,72.3,62.0,30.28,North,32767,0.0,0.0,70,0.00,,,0.00,Wunderground v.1.15,2013-08-25 18:05:00,
2013-08-25 14:15:00,73.8,63.8,30.28,North,360,0.0,0.0,71,0.00,,,0.00,Wunderground v.1.15,2013-08-25 18:15:00,
2013-08-25 14:20:00,73.7,63.3,30.28,North,360,0.0,0.0,70,0.00,,,0.00,Wunderground v.1.15,2013-08-25 18:20:00,
2013-08-25 14:30:00,72.7,62.3,30.28,North,32767,0.0,0.0,70,0.00,,,0.00,Wunderground v.1.15,2013-08-25 18:30:00,
2013-08-25 14:40:00,73.1,62.7,30.28,North,32767,0.0,0.0,70,0.00,,,0.00,Wunderground v.1.15,2013-08-25 18:40:00,
2013-08-25 14:50:00,72.6,61.0,30.28,North,32767,0.0,0.0,67,0.00,,,0.00,Wunderground v.1.15,2013-08-25 18:50:00,
2013-08-25 14:55:00,71.8,60.7,30.28,North,32767,0.0,0.0,68,0.00,,,0.00,Wunderground v.1.15,2013-08-25 18:55:00,
2013-08-25 15:05:00,73.3,62.9,30.27,North,32767,0.0,0.0,70,0.00,,,0.00,Wunderground v.1.15,2013-08-25 19:05:00,
2013-08-25 15:15:00,74.6,62.9,30.26,North,32767,0.0,0.0,67,0.00,,,0.00,Wunderground v.1.15,2013-08-25 19:15:00,
2013-08-25 15:20:00,74.1,63.3,30.26,North,360,0.0,0.0,69,0.00,,,0.00,Wunderground v.1.15,2013-08-25 19:20:00,
2013-08-25 15:25:00,73.8,61.7,30.26,North,360,0.0,0.0,66,0.00,,,0.00,Wunderground v.1.15,2013-08-25 19:25:00,
2013-08-25 15:35:00,73.1,63.1,30.26,North,32767,0.0,0.0,71,0.00,,,0.00,Wunderground v.1.15,2013-08-25 19:35:00,
2013-08-25 15:45:00,73.1,63.9,30.26,North,32767,0.0,0.0,73,0.00,,,0.00,Wunderground v.1.15,2013-08-25 19:45:00,
2013-08-25 15:50:00,73.2,64.0,30.25,North,32767,0.0,0.0,73,0.00,,,0.00,Wunderground v.1.15,2013-08-25 19:50:00,
2013-08-25 15:55:00,73.3,64.9,30.25,North,360,0.0,0.0,75,0.00,,,0.00,Wunderground v.1.15,2013-08-25 19:55:00,
2013-08-25 16:05:00,72.8,61.6,30.25,North,32767,0.0,0.0,68,0.00,,,0.00,Wunderground v.1.15,2013-08-25 20:05:00,
2013-08-25 16:15:00,71.8,62.3,30.25,North,32767,0.0,0.0,72,0.00,,,0.00,Wunderground v.1.15,2013-08-25 20:15:00,
2013-08-25 16:25:00,71.8,64.6,30.25,North,360,0.0,0.0,78,0.00,,,0.00,Wunderground v.1.15,2013-08-25 20:25:00,
2013-08-25 16:35:00,72.2,62.7,30.25,North,32767,0.0,0.0,72,0.00,,,0.00,Wunderground v.1.15,2013-08-25 20:35:00,
2013-08-25 16:40:00,72.1,62.2,30.25,North,32767,0.0,0.0,71,0.00,,,0.00,Wunderground v.1.15,2013-08-25 20:40:00,
2013-08-25 16:50:00,71.3,62.2,30.25,North,32767,0.0,0.0,73,0.00,,,0.00,Wunderground v.1.15,2013-08-25 20:50:00,
2013-08-25 16:55:00,70.9,62.2,30.24,North,32767,0.0,0.0,74,0.00,,,0.00,Wunderground v.1.15,2013-08-25 20:55:00,
2013-08-25 17:00:00,70.7,63.5,30.24,North,360,0.0,0.0,78,0.00,,,0.00,Wunderground v.1.15,2013-08-25 21:00:00,
2013-08-25 17:05:00,70.8,63.2,30.24,North,32767,0.0,0.0,77,0.00,,,0.00,Wunderground v.1.15,2013-08-25 21:05:00,
2013-08-25 17:15:00,71.2,62.9,30.25,North,32767,0.0,0.0,75,0.00,,,0.00,Wunderground v.1.15,2013-08-25 21:15:00,
2013-08-25 17:20:00,71.5,62.8,30.24,North,32767,0.0,0.0,74,0.00,,,0.00,Wunderground v.1.15,2013-08-25 21:20:00,
2013-08-25 17:25:00,71.9,63.2,30.24,North,360,0.0,0.0,74,0.00,,,0.00,Wunderground v.1.15,2013-08-25 21:25:00,
2013-08-25 17:35:00,72.0,62.1,30.25,North,360,0.0,0.0,71,0.00,,,0.00,Wunderground v.1.15,2013-08-25 21:35:00,
2013-08-25 17:45:00,71.9,62.0,30.25,North,360,0.0,0.0,71,0.00,,,0.00,Wunderground v.1.15,2013-08-25 21:45:00,
2013-08-25 17:55:00,72.4,63.6,30.24,North,32767,0.0,0.0,74,0.00,,,0.00,Wunderground v.1.15,2013-08-25 21:55:00,
2013-08-25 18:00:00,73.1,64.3,30.25,North,32767,0.0,0.0,74,0.00,,,0.00,Wunderground v.1.15,2013-08-25 22:00:00,
2013-08-25 18:05:00,73.7,63.7,30.25,North,32767,0.0,0.0,71,0.00,,,0.00,Wunderground v.1.15,2013-08-25 22:05:00,
2013-08-25 18:15:00,74.0,63.6,30.25,North,360,0.0,0.0,70,0.00,,,0.00,Wunderground v.1.15,2013-08-25 22:15:00,
2013-08-25 18:25:00,72.9,62.1,30.25,North,360,0.0,0.0,69,0.00,,,0.00,Wunderground v.1.15,2013-08-25 22:25:00,
2013-08-25 18:35:00,71.9,62.4,30.25,North,32767,0.0,0.0,72,0.00,,,0.00,Wunderground v.1.15,2013-08-25 22:35:00,
2013-08-25 18:45:00,71.2,62.9,30.25,North,32767,0.0,0.0,75,0.00,,,0.00,Wunderground v.1.15,2013-08-25 22:45:00,
2013-08-25 18:50:00,70.7,62.0,30.25,North,32767,0.0,0.0,74,0.00,,,0.00,Wunderground v.1.15,2013-08-25 22:50:00,
2013-08-25 18:55:00,70.3,61.6,30.25,North,32767,0.0,0.0,74,0.00,,,0.00,Wunderground v.1.15,2013-08-25 22:55:00,
2013-08-25 19:00:00,70.0,61.3,30.25,North,32767,0.0,0.0,74,0.00,,,0.00,Wunderground v.1.15,2013-08-25 23:00:00,
2013-08-25 19:05:00,69.7,60.7,30.25,North,32767,0.0,0.0,73,0.00,,,0.00,Wunderground v.1.15,2013-08-25 23:05:00,
2013-08-25 19:15:00,69.4,60.8,30.25,North,32767,0.0,0.0,74,0.00,,,0.00,Wunderground v.1.15,2013-08-25 23:15:00,
2013-08-25 19:25:00,68.9,60.6,30.25,North,32767,0.0,0.0,75,0.00,,,0.00,Wunderground v.1.15,2013-08-25 23:25:00,
2013-08-25 19:30:00,68.5,60.3,30.24,North,32767,0.0,0.0,75,0.00,,,0.00,Wunderground v.1.15,2013-08-25 23:30:00,
2013-08-25 19:35:00,68.3,60.8,30.25,North,32767,0.0,0.0,77,0.00,,,0.00,Wunderground v.1.15,2013-08-25 23:35:00,
2013-08-25 19:45:00,67.8,60.0,30.25,North,32767,0.0,0.0,76,0.00,,,0.00,Wunderground v.1.15,2013-08-25 23:45:00,
2013-08-25 19:50:00,67.5,60.4,30.25,North,360,0.0,0.0,78,0.00,,,0.00,Wunderground v.1.15,2013-08-25 23:50:00,
2013-08-25 19:55:00,67.2,60.1,30.25,North,360,0.0,0.0,78,0.00,,,0.00,Wunderground v.1.15,2013-08-25 23:55:00,
2013-08-25 20:00:00,66.9,60.5,30.25,North,360,0.0,0.0,80,0.00,,,0.00,Wunderground v.1.15,2013-08-26 00:00:00,
2013-08-25 20:05:00,66.5,60.1,30.25,North,32767,0.0,0.0,80,0.00,,,0.00,Wunderground v.1.15,2013-08-26 00:05:00,
2013-08-25 20:15:00,65.8,59.8,30.25,North,32767,0.0,0.0,81,0.00,,,0.00,Wunderground v.1.15,2013-08-26 00:15:00,
2013-08-25 20:25:00,65.2,59.9,30.26,North,32767,0.0,0.0,83,0.00,,,0.00,Wunderground v.1.15,2013-08-26 00:25:00,
2013-08-25 20:35:00,64.8,59.2,30.26,North,32767,0.0,0.0,82,0.00,,,0.00,Wunderground v.1.15,2013-08-26 00:35:00,
2013-08-25 20:45:00,64.6,59.3,30.26,North,360,0.0,0.0,83,0.00,,,0.00,Wunderground v.1.15,2013-08-26 00:45:00,
2013-08-25 20:50:00,64.5,59.2,30.26,North,32767,0.0,0.0,83,0.00,,,0.00,Wunderground v.1.15,2013-08-26 00:50:00,
2013-08-25 20:55:00,64.4,59.1,30.26,North,360,0.0,0.0,83,0.00,,,0.00,Wunderground v.1.15,2013-08-26 00:55:00,
2013-08-25 21:00:00,64.3,59.0,30.27,North,32767,0.0,0.0,83,0.00,,,0.00,Wunderground v.1.15,2013-08-26 01:00:00,
2013-08-25 21:10:00,64.2,59.3,30.27,North,32767,0.0,0.0,84,0.00,,,0.00,Wunderground v.1.15,2013-08-26 01:10:00,
2013-08-25 21:20:00,64.0,59.4,30.27,North,32767,0.0,0.0,85,0.00,,,0.00,Wunderground v.1.15,2013-08-26 01:20:00,
2013-08-25 21:25:00,63.9,59.3,30.27,North,360,0.0,0.0,85,0.00,,,0.00,Wunderground v.1.15,2013-08-26 01:25:00,
2013-08-25 21:35:00,63.6,59.3,30.28,North,360,0.0,0.0,86,0.00,,,0.00,Wunderground v.1.15,2013-08-26 01:35:00,
2013-08-25 21:40:00,63.6,59.7,30.28,North,32767,0.0,0.0,87,0.00,,,0.00,Wunderground v.1.15,2013-08-26 01:40:00,
2013-08-25 21:45:00,63.5,59.6,30.28,North,32767,0.0,0.0,87,0.00,,,0.00,Wunderground v.1.15,2013-08-26 01:45:00,
2013-08-25 21:55:00,63.4,59.5,30.28,North,32767,0.0,0.0,87,0.00,,,0.00,Wunderground v.1.15,2013-08-26 01:55:00,
2013-08-25 22:05:00,63.3,59.7,30.28,North,32767,0.0,0.0,88,0.00,,,0.00,Wunderground v.1.15,2013-08-26 02:05:00,
2013-08-25 22:15:00,63.1,59.5,30.28,North,32767,0.0,0.0,88,0.00,,,0.00,Wunderground v.1.15,2013-08-26 02:15:00,
2013-08-25 22:20:00,62.9,59.3,30.28,North,32767,0.0,0.0,88,0.00,,,0.00,Wunderground v.1.15,2013-08-26 02:20:00,
2013-08-25 22:25:00,62.8,59.2,30.28,North,32767,0.0,0.0,88,0.00,,,0.00,Wunderground v.1.15,2013-08-26 02:25:00,
2013-08-25 22:30:00,62.7,59.1,30.29,North,32767,0.0,0.0,88,0.00,,,0.00,Wunderground v.1.15,2013-08-26 02:30:00,
2013-08-25 22:40:00,62.5,59.2,30.29,North,360,0.0,0.0,89,0.00,,,0.00,Wunderground v.1.15,2013-08-26 02:40:00,
2013-08-25 22:45:00,62.3,59.0,30.30,North,360,0.0,0.0,89,0.00,,,0.00,Wunderground v.1.15,2013-08-26 02:45:00,
2013-08-25 22:55:00,62.1,58.8,30.30,North,32767,0.0,0.0,89,0.00,,,0.00,Wunderground v.1.15,2013-08-26 02:55:00,
2013-08-25 23:00:00,62.0,58.7,30.30,North,32767,0.0,0.0,89,0.00,,,0.00,Wunderground v.1.15,2013-08-26 03:00:00,
2013-08-25 23:05:00,61.8,58.8,30.30,North,32767,0.0,0.0,90,0.00,,,0.00,Wunderground v.1.15,2013-08-26 03:05:00,
2013-08-25 23:15:00,61.5,58.5,30.30,North,32767,0.0,0.0,90,0.00,,,0.00,Wunderground v.1.15,2013-08-26 03:15:00,
2013-08-25 23:20:00,61.4,58.4,30.30,North,360,0.0,0.0,90,0.00,,,0.00,Wunderground v.1.15,2013-08-26 03:20:00,
2013-08-25 23:25:00,61.2,58.2,30.30,North,360,0.0,0.0,90,0.00,,,0.00,Wunderground v.1.15,2013-08-26 03:25:00,
2013-08-25 23:35:00,61.0,58.0,30.30,North,32767,0.0,0.0,90,0.00,,,0.00,Wunderground v.1.15,2013-08-26 03:35:00,
2013-08-25 23:40:00,61.0,58.0,30.30,North,32767,0.0,0.0,90,0.00,,,0.00,Wunderground v.1.15,2013-08-26 03:40:00,
2013-08-25 23:50:00,60.9,57.9,30.31,North,32767,0.0,0.0,90,0.00,,,0.00,Wunderground v.1.15,2013-08-26 03:50:00,
2013-08-25 23:55:00,60.9,58.3,30.30,North,360,0.0,0.0,91,0.00,,,0.00,Wunderground v.1.15,2013-08-26 03:55:00,